Lapse_Rate
2.3 2.6 2.4 2.3 2.1 1.9 1.8 1.7 1.6 1.3 0.7 0.7 0.8 0.5 0.3 -0.2 0.3 6.4 7.8 5.8 5.9 4.4 2.8 8.7 9.1 9.1 9.1 8.5 8.7 8.5 6.5 6.5 6.5 6.5 6.5 7.2 6.6 7.8 8.3 7.8 8.0 8.3 8.2 8.5 8.2
2.3 2.4 2.3 2.3 2.3 2.2 1.9 1.9 1.5 1.4 1.0 1.2 1.2 1.0 1.1 0.6 4.5 6.9 4.0 3.7 4.6 5.3 8.9 8.7 8.3 8.7 8.1 7.9 8.0 7.1 6.5 6.5 6.5 6.6 6.5 7.0 7.1 7.4 7.3 7.3 7.3 7.8 8.6 8.9 8.7
2.3 2.5 2.5 2.4 2.4 2.3 2.1 1.9 2.0 1.5 1.8 1.5 1.1 1.3 1.4 1.5 5.9 8.4 2.3 3.8 4.5 6.4 8.1 8.3 8.6 8.4 7.4 7.8 7.5 7.0 6.5 6.5 6.8 7.4 7.6 7.2 7.2 7.9 7.2 6.5 7.4 7.4 7.9 8.6 8.8
2.4 2.3 2.4 2.6 2.7 2.5 2.2 2.2 2.1 2.0 2.0 1.9 1.5 1.6 1.3 6.2 6.5 7.6 3.4 3.4 3.8 6.3 7.9 8.6 8.4 7.5 6.9 6.5 7.5 6.6 7.0 7.2 7.3 7.6 7.5 6.7 7.8 7.2 7.4 7.4 8.4 8.5 8.6 8.7 8.5
2.5 2.2 2.6 2.6 2.9 2.9 2.9 3.1 2.1 2.2 2.1 2.1 2.2 2.2 5.9 8.1 8.1 5.9 3.5 4.6 6.5 7.0 8.8 8.5 7.9 7.6 6.5 6.8 7.0 6.5 6.7 7.3 7.6 7.7 7.7 7.8 7.1 6.9 7.3 8.4 8.8 8.7 8.6 8.5 8.7
2.3 2.5 2.5 2.7 3.2 3.2 3.7 2.7 2.0 2.2 2.2 2.4 2.4 2.5 8.1 7.0 8.0 5.6 5.7 7.2 8.4 9.2 8.9 8.8 8.1 8.2 7.3 7.0 6.6 7.1 7.1 7.2 7.6 7.5 7.6 6.9 6.9 7.4 7.6 8.5 8.3 8.2 8.3 8.5 8.6
2.5 2.5 2.5 2.9 3.3 3.9 3.4 2.2 2.3 2.4 2.6 2.8 2.9 5.7 7.2 7.7 6.6 5.2 5.2 7.2 7.7 8.2 8.5 8.8 8.8 8.1 7.7 6.5 7.7 7.3 6.5 6.5 6.9 7.2 6.6 7.4 6.5 6.5 7.7 8.0 7.7 7.9 8.1 8.3 8.5
3.0 2.8 2.8 3.1 3.5 3.7 2.6 2.5 2.7 3.0 2.9 3.2 3.2 6.5 7.7 6.8 5.7 5.2 7.6 7.2 7.5 7.4 7.4 9.2 9.1 8.3 7.7 7.8 7.2 6.5 6.5 6.5 6.5 6.6 7.0 6.9 6.5 6.5 7.7 7.5 7.3 7.7 8.1 8.2 8.5
2.9 2.9 3.0 3.0 3.6 3.0 2.7 3.1 3.1 3.8 3.5 3.6 6.2 6.8 7.4 5.9 6.7 7.8 7.4 8.6 7.4 6.6 8.8 9.0 8.8 7.7 7.5 6.5 6.5 6.5 6.5 6.5 6.5 6.7 6.5 6.5 6.5 6.5 7.6 7.6 7.4 7.7 8.0 8.2 8.4
2.8 2.9 3.1 2.8 3.3 2.8 3.2 3.2 3.7 4.7 5.9 6.9 7.3 6.9 7.5 7.8 8.4 8.0 8.1 8.6 8.5 8.3 8.2 8.0 7.7 6.5 6.5 6.5 6.5 6.5 6.5 6.5 6.5 6.5 6.5 6.5 6.5 6.5 7.4 7.4 7.3 7.7 7.9 8.1 8.1
3.1 3.2 3.1 3.0 2.9 3.0 2.5 5.1 6.9 7.5 8.4 7.6 7.6 7.6 7.9 8.5 7.9 8.7 8.1 8.4 8.6 8.0 6.5 7.2 6.5 6.5 6.5 6.5 6.5 6.5 6.5 6.5 6.5 6.5 6.5 6.5 6.5 6.5 6.9 7.2 7.1 7.3 7.5 7.7 8.0
3.7 3.4 3.2 3.4 2.5 3.4 4.7 7.4 8.4 7.9 7.1 7.3 7.9 7.9 5.7 7.6 7.6 8.3 8.6 7.6 7.2 6.5 6.6 6.5 6.5 6.5 6.5 6.5 6.5 6.5 6.5 6.5 6.5 6.5 6.5 6.5 6.5 6.5 6.5 6.6 7.0 7.2 7.4 7.7 7.9
3.9 3.5 3.4 3.1 3.2 3.2 4.5 6.9 8.3 6.5 6.7 7.3 8.0 7.9 7.8 7.0 7.3 7.6 8.3 7.7 6.6 6.5 6.5 6.5 6.5 6.5 6.5 6.5 6.5 6.5 6.5 6.5 6.5 6.5 6.5 6.5 6.5 6.5 6.5 6.9 7.1 7.5 7.7 7.9 8.0
4.1 3.6 3.3 3.3 2.8 3.4 5.2 8.1 5.5 5.3 6.5 6.5 6.9 7.5 8.1 8.2 6.9 8.6 8.8 7.8 6.6 6.5 6.5 6.5 6.7 6.5 6.5 6.5 6.5 6.5 6.5 6.5 6.5 6.5 6.5 6.5 6.5 6.5 6.5 6.5 6.5 7.0 7.6 7.9 8.2
3.4 4.1 3.2 3.1 5.1 4.4 6.7 5.6 4.4 4.6 6.5 6.5 6.8 8.9 8.4 7.3 7.4 7.5 8.8 7.9 6.5 6.5 6.5 6.5 6.5 6.5 6.5 6.5 6.5 6.5 6.5 6.5 6.5 6.5 6.5 6.5 6.5 6.5 6.5 6.5 6.5 6.5 7.5 7.9 8.2
3.6 4.1 3.2 4.4 3.2 5.9 6.5 5.3 5.5 6.5 6.5 6.5 6.9 6.6 6.6 7.1 7.0 7.7 7.6 8.2 7.7 6.5 6.5 6.5 7.1 6.5 6.5 6.5 6.5 6.5 6.5 6.5 6.5 6.5 6.5 6.5 6.5 6.5 6.5 6.5 6.5 6.7 7.4 7.8 8.2
3.9 3.6 3.6 5.0 5.1 5.1 5.3 6.3 6.5 6.5 6.5 6.5 6.5 6.5 6.5 6.5 6.5 6.5 6.5 6.5 6.5 6.5 6.5 6.5 6.5 6.5 6.7 6.5 6.5 6.5 6.5 6.5 6.5 6.5 6.5 6.5 6.5 6.5 6.5 6.5 6.5 6.5 7.3 7.9 8.2
3.8 2.7 4.2 4.5 4.2 5.4 6.2 6.4 6.5 6.5 6.5 6.5 6.5 6.5 6.5 6.5 6.5 6.5 6.5 6.5 6.5 6.5 6.5 6.5 6.5 6.5 6.5 6.5 6.5 6.5 6.5 6.5 6.5 6.5 6.5 6.5 6.5 6.5 6.5 6.8 7.2 7.5 7.7 7.9 8.1
3.6 3.7 4.6 4.5 4.9 6.3 6.2 6.5 6.5 6.5 6.5 6.5 6.5 6.5 6.5 6.5 6.5 6.5 6.5 6.5 6.5 6.5 6.5 6.5 6.5 6.5 6.5 6.5 6.5 6.5 6.5 6.5 6.5 6.5 6.5 6.5 6.5 6.5 6.5 6.5 6.8 7.1 7.5 7.7 8.1
5.0 5.6 6.0 5.1 6.2 6.6 6.5 6.5 6.5 6.5 6.5 6.5 6.5 6.5 6.5 6.5 6.5 6.5 6.5 6.5 6.5 6.5 6.6 6.5 6.5 6.5 6.5 6.7 6.6 6.5 6.5 6.5 6.5 6.5 6.5 6.5 6.5 6.5 6.5 6.5 6.5 6.5 7.1 7.6 8.1
5.6 5.6 6.1 5.7 6.3 6.5 6.5 6.5 6.5 6.8 6.7 6.5 6.5 6.5 6.5 6.5 6.5 6.5 6.5 6.5 6.5 6.5 6.5 6.5 6.5 6.5 6.5 6.5 6.5 6.5 6.5 6.5 6.5 6.5 6.5 6.5 6.5 6.5 6.5 6.5 6.5 6.5 7.4 7.7 8.0
5.5 6.5 6.4 5.9 6.5 6.5 6.5 6.5 6.8 6.5 6.9 6.5 6.5 6.5 6.5 6.5 6.5 6.5 6.5 6.5 7.0 6.7 6.5 6.5 6.5 6.5 6.5 6.5 6.5 6.5 6.5 6.5 6.5 6.5 6.5 6.5 6.5 6.5 6.5 6.5 6.8 7.0 7.6 8.0 8.2
5.5 5.9 5.7 7.1 6.5 6.5 6.5 6.5 6.6 6.5 6.5 6.5 6.5 6.5 6.5 6.5 6.5 6.5 6.5 6.7 7.0 6.5 6.5 6.5 6.5 6.5 6.5 6.5 6.5 6.5 6.5 6.5 6.5 6.5 6.5 6.5 6.5 6.5 6.4 6.5 7.2 7.1 7.6 7.9 8.1
5.4 6.5 6.2 5.6 6.0 6.5 6.5 6.5 6.5 6.8 6.5 6.5 6.5 6.5 6.5 6.5 6.5 6.5 6.5 6.5 7.0 6.8 6.8 6.7 6.5 6.5 6.5 6.5 6.5 6.5 6.5 6.5 6.5 6.5 6.5 6.5 6.5 6.5 6.5 6.5 6.6 7.3 7.8 8.0 8.1
5.7 6.5 6.6 6.5 6.5 6.5 6.5 6.5 6.5 6.5 6.6 6.7 6.5 6.5 6.5 6.5 6.5 6.5 6.5 6.5 6.7 6.9 6.7 6.5 6.5 6.5 6.5 6.5 6.5 6.5 6.5 6.5 6.5 6.5 6.5 6.5 6.5 6.5 6.5 6.5 6.9 7.6 7.8 7.9 8.0
6.4 6.5 7.1 6.5 6.7 6.5 6.5 6.5 6.5 6.5 6.5 6.5 6.5 6.5 6.5 6.5 6.5 6.5 6.5 6.5 6.5 6.5 6.5 6.5 6.5 6.5 6.5 6.5 6.5 6.5 6.5 6.5 6.5 6.5 6.5 6.5 6.5 6.5 7.0 7.4 7.2 7.5 7.7 7.7 7.9
6.0 6.6 6.9 6.5 6.5 6.5 6.5 6.5 6.5 6.5 6.7 6.7 6.5 6.5 6.5 6.5 6.9 7.1 7.2 7.0 6.7 6.5 6.5 6.5 6.5 6.5 6.5 6.5 6.5 6.5 6.5 6.5 6.5 6.5 6.5 6.5 6.5 6.5 6.5 6.5 7.1 7.5 7.7 7.7 7.8
Wind_Speed
21 20 18 16 15 13 11 8 6 4 2 6 12 15 19 20 23 8 8 2 1 3 4 3 3 2 4 4 5 3 7 11 16 12 12 5 12 12 10 15 16 12 12 5 1
22 21 19 18 17 15 12 10 7 5 4 4 9 14 18 18 11 11 3 4 4 3 1 1 1 3 4 4 5 9 10 16 8 11 16 15 14 18 18 20 19 15 18 12 8
24 22 21 19 19 17 14 11 8 6 6 6 8 12 16 15 6 2 3 8 4 2 4 2 2 5 7 5 7 7 14 15 11 14 16 18 19 18 20 27 21 18 13 13 15
26 24 22 20 19 17 15 12 10 6 6 5 7 10 14 5 6 4 2 3 2 3 4 4 4 8 7 9 5 11 15 14 15 14 16 18 20 21 21 28 25 24 21 18 16
26 25 23 21 20 19 17 14 10 6 5 4 4 9 5 5 8 6 1 2 7 6 10 11 12 11 13 6 6 14 15 12 11 16 19 19 22 23 27 28 28 26 23 19 19
29 27 25 23 22 22 19 14 12 9 6 3 3 7 4 10 3 3 3 5 7 10 11 10 8 5 8 9 9 7 11 17 19 20 21 23 23 21 23 23 23 17 15 13 16
30 29 26 25 24 23 18 16 12 11 8 4 1 2 6 14 1 2 2 3 3 2 4 2 1 8 1 7 6 9 15 16 20 17 10 11 18 15 13 13 12 9 8 10 10
32 30 28 25 24 23 19 17 15 12 9 5 3 2 8 3 7 9 10 10 10 10 10 6 6 10 10 6 11 11 12 11 4 8 13 6 21 16 11 4 3 11 14 14 15
34 32 29 27 25 24 21 19 15 10 8 9 4 3 9 2 6 4 7 4 6 4 6 7 4 7 4 12 11 9 11 14 14 5 14 10 19 3 7 17 23 19 17 19 21
35 34 32 30 27 26 25 19 13 12 6 4 1 3 9 5 5 6 6 8 4 12 8 7 5 8 10 10 11 11 13 11 13 9 17 24 32 27 21 17 17 17 18 18 16
37 35 34 32 31 32 22 10 6 5 10 11 9 4 3 2 5 9 6 9 9 9 7 9 8 13 16 16 16 16 16 17 17 16 21 24 31 26 19 19 18 15 10 13 14
37 37 35 35 37 38 21 11 17 3 7 22 9 10 4 2 6 8 9 12 11 13 9 7 15 15 11 14 15 15 17 17 15 8 11 20 36 28 23 11 5 12 11 11 10
38 38 37 36 38 21 22 24 9 4 2 5 11 12 8 10 8 13 14 8 13 15 17 19 6 6 7 10 10 13 14 12 17 17 17 22 34 23 7 10 6 11 8 9 17
39 41 39 38 19 13 18 13 7 3 1 5 9 10 12 9 10 16 15 11 10 15 18 15 16 18 16 15 13 17 12 14 14 11 9 3 13 36 1 2 12 6 15 16 18
38 40 41 47 13 14 14 14 7 4 4 9 9 10 12 18 10 10 11 11 20 12 9 5 9 10 14 17 16 16 6 7 9 14 16 10 8 21 18 19 13 16 16 16 16
37 40 46 22 5 12 25 19 7 5 8 10 10 15 14 15 9 9 8 6 5 10 10 12 2 4 4 3 9 6 5 8 10 10 10 11 15 25 18 18 12 11 14 17 18
40 39 37 19 13 27 22 11 5 7 10 12 12 17 18 14 14 15 17 14 10 10 13 12 14 3 5 9 8 10 7 4 7 8 9 4 9 19 22 13 12 15 18 19 16
40 42 36 14 28 27 16 6 7 10 12 10 17 20 15 21 14 15 17 12 6 7 11 13 8 10 2 5 5 7 5 6 9 12 14 19 13 13 6 7 12 18 20 21 20
35 19 13 14 27 21 15 13 15 8 18 17 21 21 12 15 9 14 16 11 4 2 7 7 6 7 4 3 3 7 7 3 8 16 15 15 20 21 10 15 16 20 21 22 24
15 9 6 23 24 19 15 25 6 7 13 23 13 15 19 20 14 14 15 8 6 3 3 3 5 6 6 3 3 5 5 5 5 5 14 13 12 12 14 20 14 22 21 21 22
11 7 4 18 13 11 14 5 6 6 11 16 9 6 12 20 13 13 12 7 5 7 4 6 2 7 2 7 7 6 8 5 4 8 10 15 16 6 14 16 21 23 24 23 22
7 5 10 15 12 3 6 9 8 13 7 5 7 12 16 14 8 6 8 5 8 7 4 3 2 4 5 2 7 9 6 2 5 5 4 3 16 13 17 17 21 22 24 25 25
5 4 3 14 7 10 8 7 5 6 6 4 4 4 8 8 7 9 12 5 12 6 5 6 4 3 10 4 5 4 6 5 3 0 12 13 11 14 18 24 24 24 24 24 23
5 6 3 2 1 13 17 10 9 9 7 8 9 15 12 7 8 12 10 7 7 6 3 7 6 7 9 6 3 8 9 11 8 6 12 17 21 25 24 24 24 26 25 24 22
3 5 5 9 8 15 12 7 19 7 4 7 6 8 13 7 11 10 15 12 8 7 8 6 7 10 14 13 12 16 16 13 18 18 17 23 25 27 24 24 24 23 25 26 26
4 5 3 11 18 18 10 12 21 10 5 6 10 18 11 11 7 16 14 11 9 11 10 7 4 5 9 13 15 17 16 19 20 19 21 23 27 23 19 21 23 22 23 25 26
4 3 5 11 11 11 6 10 17 13 6 11 19 13 10 10 10 12 8 9 9 12 13 8 5 4 10 6 6 12 18 21 18 17 16 19 22 21 22 22 21 22 24 23 22
Wind_Direction
212 217 216 217 218 216 215 218 233 254 295 326 324 320 317 324 319 273 277 26 33 320 227 166 176 289 211 200 209 224 247 255 260 268 282 277 280 284 301 276 276 262 263 329 106
209 211 211 212 216 216 214 219 217 238 253 297 306 311 313 326 299 279 47 147 72 30 122 80 27 318 235 223 199 224 243 271 287 275 285 287 286 292 293 284 269 250 250 270 228
208 208 208 208 211 213 213 211 218 216 263 290 297 306 315 320 278 149 75 150 89 20 36 354 318 310 270 248 220 226 253 283 282 273 290 294 286 288 287 274 275 277 275 257 237
207 204 203 205 206 208 209 208 214 220 248 274 293 306 313 281 296 107 91 150 206 295 276 284 251 298 282 254 248 264 252 278 279 295 291 281 293 282 274 275 283 284 279 266 248
205 200 200 198 200 206 206 212 198 193 215 228 291 310 282 241 256 125 228 249 249 244 264 272 276 282 258 253 268 249 270 289 296 286 279 284 276 275 274 274 280 281 278 263 260
201 200 195 194 199 205 209 197 181 178 186 203 278 302 250 255 71 160 332 277 258 245 257 258 274 271 265 248 248 320 290 286 283 281 282 278 278 276 267 278 284 283 288 276 256
198 196 193 194 198 202 197 173 172 170 168 175 272 272 242 250 187 225 249 251 259 267 220 209 259 235 201 264 279 289 283 287 273 278 290 305 274 250 262 274 294 305 307 319 297
197 194 190 192 196 187 171 164 166 165 153 162 172 246 259 232 270 258 244 247 255 262 246 254 235 260 249 278 262 273 277 276 92 304 293 282 286 286 350 317 316 333 317 304 285
194 190 188 185 188 168 159 156 153 161 150 157 204 246 264 132 239 233 196 199 134 139 165 165 187 230 200 233 259 214 280 287 295 292 302 267 298 293 272 297 294 304 299 295 293
192 188 184 179 174 154 145 142 143 143 169 174 151 267 229 220 170 153 159 162 138 133 149 136 168 203 218 211 243 277 278 255 274 293 290 289 281 284 289 296 295 291 289 290 293
190 187 181 174 159 146 132 126 155 192 214 200 190 235 118 145 208 195 165 166 164 208 201 187 208 220 222 224 263 284 277 276 280 292 288 279 280 286 291 293 294 298 300 302 307
191 185 178 172 157 158 164 193 194 74 213 227 232 251 226 272 189 185 166 191 204 223 188 194 238 247 254 263 257 259 263 269 280 265 285 292 288 295 294 297 289 302 309 311 323
188 183 177 167 160 166 188 202 149 137 328 193 215 229 214 199 222 204 188 211 219 230 219 241 233 114 209 220 235 235 253 266 281 299 280 275 283 286 115 290 336 320 331 29 9
188 181 174 157 155 179 207 183 138 91 25 221 206 225 185 187 235 215 210 212 217 236 229 256 258 247 240 240 234 260 262 265 273 282 278 9 298 299 209 305 318 25 21 6 355
183 178 161 161 149 188 162 133 88 68 231 190 155 139 161 185 122 178 187 195 223 207 191 212 190 200 225 242 242 262 256 254 263 271 291 251 246 276 296 312 346 19 2 351 342
185 174 163 178 162 186 132 113 97 115 223 195 153 172 163 197 190 135 160 206 222 217 224 250 140 210 235 206 203 131 216 240 254 260 261 267 239 274 309 342 17 3 353 345 343
185 173 169 172 180 140 128 128 98 187 135 186 181 176 182 174 171 175 169 173 176 178 197 191 212 166 216 202 200 225 239 251 230 199 249 231 243 252 296 2 356 343 346 337 339
182 171 183 171 148 145 146 150 186 189 182 151 161 165 182 162 174 180 174 170 199 227 159 186 181 180 136 213 170 176 210 250 262 269 284 304 268 265 334 2 1 350 345 344 343
173 175 169 160 152 151 152 203 207 160 172 165 157 162 160 179 179 171 192 187 127 239 210 178 138 113 100 159 204 144 219 49 280 275 268 259 268 264 233 359 342 342 335 338 337
149 142 151 156 158 158 182 203 154 169 170 168 162 187 172 171 162 181 166 160 140 97 308 159 139 195 134 158 123 259 78 217 201 262 264 262 268 267 322 329 321 325 326 327 326
132 114 141 153 150 165 192 157 118 165 164 171 158 151 171 161 163 162 162 145 139 116 97 143 223 153 187 210 254 192 235 215 284 257 263 276 266 1 325 317 314 321 318 314 317
126 120 165 151 144 185 140 133 111 148 145 120 118 114 154 146 143 134 144 115 155 151 128 105 118 192 230 23 288 254 232 213 224 200 233 283 265 301 290 306 304 308 306 310 314
99 105 144 160 166 156 131 126 107 141 125 122 110 126 134 135 118 134 143 164 159 156 154 166 152 189 153 168 197 201 196 162 133 145 246 253 263 301 298 297 300 305 311 314 314
119 127 104 102 227 134 128 129 118 109 86 96 112 116 109 124 128 159 137 146 163 156 133 165 192 234 262 352 255 230 216 181 196 244 260 253 277 280 285 297 303 309 316 314 317
77 119 136 167 161 140 120 126 124 129 119 127 123 141 138 136 139 159 144 132 159 163 167 170 218 230 257 270 265 265 263 250 247 243 252 275 279 280 291 297 301 310 312 314 314
108 135 82 130 132 121 133 148 130 111 137 129 134 149 143 156 168 167 157 163 168 180 182 182 223 264 262 266 258 259 262 256 255 263 266 268 271 280 292 310 304 311 314 313 311
42 72 103 136 143 136 145 134 132 122 55 139 148 139 143 129 110 132 130 150 150 168 184 170 198 190 263 250 268 272 253 258 264 266 275 277 290 315 301 302 309 312 315 313 326